| time (UTC) | temp F | wind direction | speed MPH | gust MPH | rain 1hr in | rain 24hr in | rain mn in | humidity % | barometer mb |
| 20260510074234 | 200 | 182 | 1.0 | 6.0 | 0.00 | 0.28 | 0.28 | 100 | 1012.4 |
| 20260510072733 | 61 | 218 | 0.0 | 3.0 | 0.00 | 0.28 | 0.28 | 100 | 1012.4 |
| 20260510071232 | 59 | 235 | 1.0 | 4.0 | 0.00 | 0.28 | 0.28 | 32 | 1012.4 |
| 20260510065732 | 58 | 262 | 1.0 | 3.0 | 0.00 | 0.28 | 0.28 | 31 | 1012.3 |
| 20260510064231 | 58 | 333 | 0.0 | 2.0 | 0.00 | 0.28 | 0.28 | 30 | 1012.4 |
| 20260510062730 | 57 | 140 | 0.0 | 0.0 | 0.00 | 0.28 | 0.28 | 30 | 1012.3 |
| 20260510061229 | 55 | 174 | 0.0 | 1.0 | 0.00 | 0.28 | 0.28 | 31 | 1012.1 |
| 20260510055728 | 53 | 140 | 0.0 | 0.0 | 0.00 | 0.28 | 0.28 | 31 | 1012.2 |
| 20260510054227 | 52 | 140 | 0.0 | 1.0 | 0.00 | 0.28 | 0.28 | 32 | 1012.1 |
| 20260510052726 | 51 | 140 | 0.0 | 0.0 | 0.00 | 0.28 | 0.28 | 32 | 1012.1 |
| 20260510051226 | 51 | 140 | 0.0 | 0.0 | 0.00 | 0.28 | 0.28 | 32 | 1012.0 |
| 20260510045725 | 51 | 140 | 0.0 | 0.0 | 0.00 | 0.28 | 0.28 | 32 | 1012.1 |
| 20260510044224 | 51 | 140 | 0.0 | 0.0 | 0.00 | 0.28 | 0.28 | 32 | 1012.2 |
| 20260510042723 | 51 | 140 | 0.0 | 0.0 | 0.00 | 0.28 | 0.28 | 32 | 1012.2 |
| 20260510041222 | 52 | 140 | 0.0 | 0.0 | 0.00 | 0.28 | 0.28 | 32 | 1012.2 |
| 20260510035721 | 52 | 140 | 0.0 | 0.0 | 0.00 | 0.28 | 0.28 | 32 | 1012.2 |
| 20260510034220 | 52 | 140 | 0.0 | 1.0 | 0.00 | 0.28 | 0.28 | 32 | 1012.2 |
| 20260510032720 | 51 | 140 | 0.0 | 2.0 | 0.00 | 0.28 | 0.28 | 32 | 1012.2 |
| 20260510031219 | 51 | 140 | 0.0 | 1.0 | 0.00 | 0.28 | 0.28 | 32 | 1012.2 |
| 20260510025718 | 52 | 140 | 1.0 | 3.0 | 0.00 | 0.28 | 0.28 | 32 | 1012.4 |
| 20260510024217 | 52 | 136 | 0.0 | 0.0 | 0.00 | 0.28 | 0.28 | 32 | 1012.5 |
| 20260510022716 | 52 | 136 | 0.0 | 0.0 | 0.00 | 0.28 | 0.28 | 32 | 1012.6 |
| 20260510021215 | 52 | 136 | 0.0 | 1.0 | 0.00 | 0.28 | 0.28 | 32 | 1012.6 |
| 20260510015715 | 52 | 136 | 0.0 | 0.0 | 0.00 | 0.28 | 0.28 | 32 | 1012.5 |
| 20260510014214 | 53 | 136 | 0.0 | 1.0 | 0.00 | 0.28 | 0.28 | 32 | 1012.4 |
| 20260510012713 | 54 | 136 | 0.0 | 0.0 | 0.00 | 0.28 | 0.28 | 31 | 1012.2 |
| 20260510011212 | 54 | 136 | 0.0 | 0.0 | 0.00 | 0.28 | 0.28 | 31 | 1012.3 |
| 20260510005711 | 54 | 136 | 0.0 | 1.0 | 0.00 | 0.28 | 0.28 | 31 | 1012.4 |
| 20260510004210 | 55 | 137 | 0.0 | 1.0 | 0.00 | 0.28 | 0.28 | 31 | 1012.5 |
| 20260510002709 | 55 | 137 | 0.0 | 0.0 | 0.00 | 0.28 | 0.28 | 31 | 1012.6 |
| 20260510001209 | 56 | 137 | 0.0 | 0.0 | 0.00 | 0.28 | 0.28 | 31 | 1012.8 |
| 20260509235708 | 55 | 137 | 0.0 | 3.0 | 0.00 | 0.28 | 0.28 | 31 | 1013.1 |
| 20260509234207 | 55 | 109 | 0.0 | 2.0 | 0.00 | 0.28 | 0.28 | 31 | 1013.2 |
| 20260509232706 | 200 | 109 | 0.0 | 0.0 | 0.00 | 0.28 | 0.28 | 100 | 1013.2 |
| 20260509231205 | 55 | 109 | 1.0 | 1.0 | 0.00 | 0.28 | 0.28 | 31 | 1013.2 |
| 20260509225704 | 56 | 112 | 0.0 | 0.0 | 0.00 | 0.28 | 0.28 | 30 | 1013.3 |
| 20260509224203 | 56 | 112 | 0.0 | 0.0 | 0.00 | 0.28 | 0.28 | 30 | 1013.2 |
| 20260509222703 | 57 | 112 | 0.0 | 0.0 | 0.00 | 0.28 | 0.28 | 30 | 1013.2 |
| 20260509221202 | 200 | 112 | 0.0 | 1.0 | 0.00 | 0.28 | 0.28 | 100 | 1013.2 |
| 20260509215701 | 57 | 112 | 0.0 | 0.0 | 0.00 | 0.28 | 0.28 | 30 | 1013.1 |
| 20260509214200 | 57 | 111 | 0.0 | 0.0 | 0.00 | 0.28 | 0.28 | 30 | 1013.2 |
| 20260509212659 | 200 | 112 | 0.0 | 2.0 | 0.00 | 0.28 | 0.28 | 100 | 1013.1 |
| 20260509211158 | 57 | 116 | 1.0 | 2.0 | 0.00 | 0.28 | 0.28 | 30 | 1013.1 |
| 20260509205657 | 57 | 119 | 0.0 | 0.0 | 0.00 | 0.28 | 0.28 | 30 | 1013.0 |
| 20260509204157 | 57 | 119 | 0.0 | 2.0 | 0.00 | 0.28 | 0.28 | 30 | 1012.7 |
| 20260509202656 | 57 | 87 | 0.0 | 2.0 | 0.00 | 0.28 | 0.28 | 30 | 1012.5 |
| 20260509201155 | 58 | 75 | 0.0 | 0.0 | 0.00 | 0.28 | 0.28 | 30 | 1012.2 |
| 20260509195654 | 58 | 75 | 0.0 | 0.0 | 0.00 | 0.28 | 0.28 | 30 | 1011.9 |
| 20260509194153 | 58 | 75 | 0.0 | 0.0 | 0.00 | 0.28 | 0.28 | 30 | 1011.6 |
| 20260509192652 | 58 | 75 | 0.0 | 0.0 | 0.00 | 0.28 | 0.28 | 30 | 1011.5 |
| 20260509191151 | 200 | 75 | 0.0 | 1.0 | 0.00 | 0.28 | 0.28 | 30 | 1011.4 |
| 20260509185651 | 57 | 52 | 0.0 | 2.0 | 0.00 | 0.28 | 0.28 | 100 | 1011.1 |
| 20260509184150 | 200 | 268 | 1.0 | 3.0 | 0.01 | 0.28 | 0.28 | 30 | 1010.5 |
| 20260509182649 | 200 | 283 | 0.0 | 1.0 | 0.01 | 0.28 | 0.28 | 100 | 1010.3 |
| 20260509181148 | 57 | 223 | 1.0 | 4.0 | 0.02 | 0.28 | 0.28 | 100 | 1010.0 |
| 20260509175647 | 57 | 113 | 1.0 | 2.0 | 0.03 | 0.28 | 0.28 | 30 | 1010.1 |
| 20260509174146 | 57 | 146 | 0.0 | 2.0 | 0.04 | 0.27 | 0.27 | 100 | 1009.8 |
| 20260509172646 | 57 | 149 | 3.0 | 5.0 | 0.06 | 0.27 | 0.27 | 31 | 1009.9 |
| 20260509171145 | 57 | 178 | 2.0 | 6.0 | 0.08 | 0.26 | 0.26 | 31 | 1010.4 |
| 20260509165644 | 57 | 167 | 2.0 | 5.0 | 0.09 | 0.25 | 0.25 | 100 | 1011.2 |
| 20260509164143 | 58 | 169 | 1.0 | 5.0 | 0.09 | 0.23 | 0.23 | 31 | 1011.8 |
| 20260509162642 | 200 | 336 | 0.0 | 3.0 | 0.13 | 0.21 | 0.21 | 31 | 1012.3 |
| 20260509161141 | 200 | 19 | 0.0 | 2.0 | 0.14 | 0.18 | 0.18 | 32 | 1012.7 |
| 20260509155640 | 58 | 0 | 1.0 | 3.0 | 0.14 | 0.16 | 0.16 | 32 | 1012.8 |
| 20260509154140 | 58 | 21 | 1.0 | 4.0 | 0.12 | 0.14 | 0.14 | 34 | 1012.9 |
| 20260509152639 | 59 | 36 | 3.0 | 7.0 | 0.06 | 0.08 | 0.08 | 36 | 1012.2 |
| 20260509151138 | 60 | 22 | 1.0 | 2.0 | 0.02 | 0.04 | 0.04 | 37 | 1010.4 |
| 20260509145637 | 59 | 323 | 0.0 | 3.0 | 0.02 | 0.02 | 0.02 | 41 | 1010.1 |
| 20260509144136 | 59 | 280 | 1.0 | 4.0 | 0.02 | 0.02 | 0.02 | 45 | 1010.3 |
| 20260509142635 | 60 | 302 | 3.0 | 8.0 | 0.02 | 0.02 | 0.02 | 49 | 1010.9 |
| 20260509141134 | 62 | 296 | 5.0 | 8.0 | 0.02 | 0.02 | 0.02 | 100 | 1011.2 |
| 20260509135634 | 64 | 299 | 5.0 | 10.0 | 0.00 | 0.00 | 0.00 | 64 | 1011.6 |
| 20260509134133 | 64 | 331 | 2.0 | 8.0 | 0.00 | 0.00 | 0.00 | 66 | 1012.0 |
| 20260509132632 | 64 | 0 | 2.0 | 4.0 | 0.00 | 0.00 | 0.00 | 66 | 1011.9 |
| 20260509131131 | 64 | 322 | 2.0 | 4.0 | 0.00 | 0.00 | 0.00 | 66 | 1011.7 |
| 20260509125630 | 64 | 292 | 2.0 | 7.0 | 0.00 | 0.00 | 0.00 | 65 | 1011.4 |
| 20260509124129 | 64 | 283 | 2.0 | 4.0 | 0.00 | 0.00 | 0.00 | 61 | 1011.1 |
| 20260509122628 | 64 | 273 | 4.0 | 10.0 | 0.00 | 0.00 | 0.00 | 59 | 1011.4 |
| 20260509121128 | 64 | 302 | 8.0 | 13.0 | 0.00 | 0.00 | 0.00 | 63 | 1012.4 |
| 20260509115627 | 64 | 286 | 6.0 | 11.0 | 0.00 | 0.00 | 0.00 | 65 | 1012.8 |
| 20260509114126 | 64 | 288 | 6.0 | 9.0 | 0.00 | 0.00 | 0.00 | 65 | 1013.0 |
| 20260509112625 | 64 | 323 | 8.0 | 14.0 | 0.00 | 0.00 | 0.00 | 65 | 1013.3 |
| 20260509111124 | 200 | 271 | 6.0 | 13.0 | 0.00 | 0.00 | 0.00 | 60 | 1012.9 |
| 20260509105623 | 64 | 296 | 5.0 | 14.0 | 0.00 | 0.00 | 0.00 | 58 | 1013.0 |
| 20260509104122 | 65 | 335 | 3.0 | 9.0 | 0.00 | 0.00 | 0.00 | 100 | 1013.3 |
| 20260509102622 | 65 | 5 | 5.0 | 9.0 | 0.00 | 0.00 | 0.00 | 60 | 1013.1 |
| 20260509101121 | 65 | 267 | 5.0 | 8.0 | 0.00 | 0.00 | 0.00 | 60 | 1013.0 |
| 20260509095620 | 65 | 325 | 3.0 | 6.0 | 0.00 | 0.00 | 0.00 | 61 | 1012.9 |
| 20260509094119 | 64 | 253 | 2.0 | 7.0 | 0.00 | 0.00 | 0.00 | 62 | 1012.7 |
| 20260509092618 | 64 | 157 | 1.0 | 8.0 | 0.00 | 0.00 | 0.00 | 62 | 1012.7 |
| 20260509091117 | 64 | 159 | 1.0 | 2.0 | 0.00 | 0.00 | 0.00 | 61 | 1012.5 |
| 20260509085616 | 64 | 186 | 0.0 | 3.0 | 0.00 | 0.00 | 0.00 | 60 | 1012.6 |
| 20260509084116 | 63 | 161 | 1.0 | 5.0 | 0.00 | 0.00 | 0.00 | 59 | 1012.7 |
| 20260509082615 | 63 | 223 | 0.0 | 5.0 | 0.00 | 0.00 | 0.00 | 59 | 1012.6 |
| 20260509081114 | 63 | 190 | 1.0 | 3.0 | 0.00 | 0.00 | 0.00 | 57 | 1012.4 |
| 20260509075613 | 62 | 186 | 2.0 | 7.0 | 0.00 | 0.00 | 0.00 | 55 | 1012.5 |